Content
SEND FEEDBACK

Daily
Averages
Monthly
Summary
United States of America

BARTON HILLS, MICHIGAN


Home > North America > United States > Michigan
Elevation: 899 feet     Latitude: 42 18N     Longitude: 083 43W

WEATHER
 
SELECT A DAY
Number of Records: 208,871;   Date Range: 1/1/95 - 12/18/14
 
SHARE

PRINT THIS DATA

[ ← Previous Day ]
WEATHER ALMANAC - FEBRUARY 3, 2014
[ Next Day → ]
[ °C ]   °F
Weather ElementAverageHighLow
Temperature11.3 °F21.9 °F (1:53 pm)-2.9 °F (10:53 pm)
Dewpoint4.8 °F10 °F (10:53 am)-8 °F (10:53 pm)
Humidity76 %91 % (9:53 pm)55 % (3:53 pm)
Barometer30.35 in30.43 in (11:53 pm)30.28 in (4:53 am)
Wind Speed2.8 mph8.1 mph (2:53 pm)
Weather ElementAverage
Visibility8.8 mi
Wind DirectionSE (133.5 °)

Weather ElementTotal
Precipitation---
Heating Degree Days55.5 (Base 65)
Averaged from 23 records on February 3, 2014
WEATHER CONDITIONS BREAKOUT
WIND DIRECTION BREAKOUT
WEATHER BY HOUR - FEBRUARY 3, 2014
[ °C ]   °F
Local TimeTemperatureDewpointHumidityBarometerVisibilityWind DirectionWind SpeedGust SpeedPrecipitationEventsConditions
1:53 AM12.0 °F9.0 °F88 %30.30 in9.0 miCalmClear
2:53 AM10.0 °F7.0 °F87 %30.29 in9.0 miNNE (20°)3.5 mphClear
3:53 AM12.9 °F8.1 °F81 %30.29 in10.0 miNorth (10°)5.8 mphClear
4:53 AM10.9 °F7.0 °F84 %30.28 in10.0 miNorth (360°)4.6 mphClear
5:53 AM10.0 °F6.1 °F84 %30.29 in10.0 miNorth (350°)6.9 mphClear
6:53 AM7.0 °F3.0 °F84 %30.31 in8.0 miCalmClear
7:53 AM3.9 °F1.0 °F88 %30.34 in6.0 miCalmClear
8:53 AM10.0 °F5.0 °F80 %30.35 in7.0 miNorth (350°)3.5 mphClear
9:53 AM10.0 °F7.0 °F87 %30.37 in8.0 miCalmClear
10:53 AM16.0 °F10.0 °F77 %30.38 in8.0 miCalmClear
11:53 AM19.9 °F9.0 °F62 %30.38 in10.0 miCalmClear
12:53 PM19.9 °F10.0 °F65 %30.34 in10.0 miWSW (240°)3.5 mphClear
1:53 PM21.9 °F9.0 °F58 %30.34 in10.0 miWest (260°)3.5 mph0.00 inClear
2:53 PM21.0 °F8.1 °F57 %30.35 in10.0 miWest (260°)8.1 mphClear
3:53 PM21.9 °F8.1 °F55 %30.36 in10.0 miWest (270°)6.9 mphClear
4:53 PM21.0 °F7.0 °F55 %30.38 in10.0 miWSW (250°)8.1 mphClear
5:53 PM19.0 °F8.1 °F62 %30.37 in10.0 miSouth (180°)3.5 mphClear
6:53 PM8.1 °F3.9 °F83 %30.38 in10.0 miCalmClear
7:53 PM7.0 °F3.0 °F84 %30.40 in8.0 miCalmClear
8:53 PM-0.9 °F-6.0 °F79 %30.40 in5.0 miCalmHaze
9:53 PM3.0 °F1.0 °F91 %30.40 in6.0 miWest (260°)3.5 mphClear
10:53 PM-2.9 °F-8.0 °F79 %30.42 in9.0 miWest (260°)3.5 mphClear
11:53 PM-0.9 °F-6.0 °F79 %30.43 in10.0 miCalmClear
Hourly data recorded from KARB, located miles away from Barton Hills, Michigan







STORIES FROM OUR PARTNERS